Weather History for KBKE - June, 2013

Change the Weather History Date:

Sunday, June 16, 2013

  Actual Average Record
Temperature  
Mean Temperature 64 °F 58 °F  
Max Temperature 86 °F 74 °F 95 °F (1961)
Min Temperature 42 °F 42 °F 32 °F (2004)
Degree Days  
Heating Degree Days 1 8  
Month to date heating degree days 104 143  
Since 1 June heating degree days 104 143  
Since 1 July heating degree days 7403 7590  
Cooling Degree Days 0 1  
Month to date cooling degree days 0 1  
Year to date cooling degree days 4 3  
Since 1 June cooling degree days 0 1  
Growing Degree Days 14 (Base 50)    
Moisture  
Dew Point 41 °F    
Average Humidity 52    
Maximum Humidity 89    
Minimum Humidity 14    
Precipitation  
Precipitation 0.00 in 0.04 in 0.94 in (1979)
Month to date precipitation T 0.71  
Year to date precipitation 3.45 5.24  
Sea Level Pressure  
Sea Level Pressure 29.94 in    
Wind  
Wind Speed 6 mph (WNW)    
Max Wind Speed 22 mph    
Max Gust Speed 28 mph    
Visibility 10 miles    
Events      
T = Trace of Precipitation, MM = Missing Value Source: NWS Daily Summary

Daily Weather History Graph

Daily Weather History Graph

Search for Another Location

Airport or City:

Trip Planner

Search our weather history database for the weather conditions in past years. The results will help you decide how hot, cold, wet, or windy it might be!

Date:

Astronomy

Jun. 16, 2013 Rise Set
Actual Time 5:04 AM PDT 8:39 PM PDT
Civil Twilight 4:27 AM PDT 9:16 PM PDT
Nautical Twilight 3:38 AM PDT 10:06 PM PDT
Astronomical Twilight 2:33 AM PDT 11:11 PM PDT
Moon 1:04 PM PDT (6/16) 12:29 AM PDT (6/16)
Length of Visible Light 16h 49m
Length of Day
15h 35m
Waxing Crescent, 51% of the Moon is Illuminated
Jun 16
Waxing Crescent
Jun 23
Full
Jun 29
Last Quarter
Jul 8
New
Jul 15
First Quarter

Hourly Weather History & Observations

Time (PDT) Temp. Windchill Dew Point Humidity Pressure Visibility Wind Dir Wind Speed Gust Speed Precip Events Conditions
12:53 AM 51.1 °F - 41.0 °F 68% 29.95 in 10.0 mi SSW 5.8 mph - N/A   Clear
1:53 AM 51.1 °F - 35.1 °F 54% 29.95 in 10.0 mi South 3.5 mph - N/A   Clear
2:53 AM 45.0 °F 42.6 °F 37.9 °F 76% 29.96 in 10.0 mi South 4.6 mph - N/A   Clear
3:53 AM 44.1 °F - 37.9 °F 79% 29.97 in 10.0 mi Calm Calm - N/A   Clear
4:53 AM 43.0 °F - 39.0 °F 86% 29.97 in 10.0 mi Calm Calm - N/A   Clear
5:53 AM 45.0 °F - 41.0 °F 86% 29.98 in 10.0 mi Calm Calm - N/A   Clear
6:53 AM 50.0 °F - 42.1 °F 74% 29.99 in 10.0 mi Calm Calm - N/A   Clear
7:53 AM 60.1 °F - 44.1 °F 55% 29.99 in 10.0 mi Calm Calm - N/A   Clear
8:53 AM 64.9 °F - 41.0 °F 42% 29.99 in 10.0 mi WNW 4.6 mph - N/A   Clear
9:53 AM 71.1 °F - 41.0 °F 34% 29.98 in 10.0 mi West 6.9 mph - N/A   Clear
10:53 AM 73.9 °F - 43.0 °F 33% 29.97 in 10.0 mi West 5.8 mph - N/A   Clear
11:53 AM 78.1 °F - 41.0 °F 27% 29.95 in 10.0 mi NNW 4.6 mph - N/A   Clear
12:53 PM 81.0 °F - 37.9 °F 21% 29.93 in 10.0 mi Variable 3.5 mph - N/A   Clear
1:53 PM 84.0 °F - 35.1 °F 17% 29.89 in 10.0 mi NNE 3.5 mph - N/A   Clear
2:53 PM 84.0 °F - 30.0 °F 14% 29.88 in 10.0 mi ESE 5.8 mph - N/A   Clear
3:53 PM 79.0 °F - 44.1 °F 29% 29.89 in 10.0 mi WNW 12.7 mph 19.6 mph N/A   Clear
4:53 PM 78.1 °F - 46.9 °F 33% 29.90 in 10.0 mi NW 11.5 mph - N/A   Clear
5:53 PM 78.1 °F - 43.0 °F 29% 29.91 in 10.0 mi NW 17.3 mph 25.3 mph N/A   Clear
6:53 PM 75.0 °F - 42.1 °F 31% 29.89 in 10.0 mi North 12.7 mph 20.7 mph N/A   Clear
7:53 PM 70.0 °F - 46.0 °F 42% 29.91 in 10.0 mi West 12.7 mph - N/A   Clear
8:53 PM 62.1 °F - 46.9 °F 58% 29.94 in 10.0 mi West 4.6 mph - N/A   Clear
9:53 PM 60.1 °F - 46.0 °F 60% 29.95 in 10.0 mi Calm Calm - N/A   Clear
10:53 PM 61.0 °F - 43.0 °F 52% 29.96 in 10.0 mi WNW 4.6 mph - N/A   Clear
11:53 PM 60.1 °F - 42.1 °F 51% 29.97 in 10.0 mi NW 11.5 mph - N/A   Clear